Showing default

KINEIS-5B, 62085

Orbit data source: Space-Track

KINEIS-5B, 62085 is a French payload satellite in SSO that was launched on Mon, 25 Nov 2024 UTC via an ELECTRON launch vehicle from the Rocket Lab Launch Complex (RLLC). Payload-class satellites include a variety of spacecraft equipped with specific instruments for various scientific and technological missions. These include communications satellites like Starlink; space stations such as the ISS; scientific satellites like the Hubble; Earth observation satellites from companies like Planet Labs, Umbra, and HawkEye 360; GPS; miniature CubeSats for education and research; and military/defense satellites.

Loading next visibility...
Identifier
62085, 2024-219E
Orbit
SSO
Last TLE update
9 hours ago
Origin
Manufacturer
KINEIS
Mission
Operational Commercial Communications
Bus & Motor
CUBESAT 16U, Unknown motor
Mass
28 kg wet, 28 kg dry
Launch date (UTC)
2024-11-25 (7 months ago)
Launch vehicle
ELECTRON
Launch site
Rocket Lab Launch Complex (RLLC)
Object type
Payload
Rocket body
Debris
Shape & HBR
Box + 2 Pan + 1 Ant, 1.6 m
Radar Cross Section
0.229 m², Medium (>0.1 m² and < 1m²)

Expand to show TLE details & history

TLE from 9 hours ago
0 KINEIS-5B
1 62085U 24219E   25188.91967502  .00000921  00000-0  13814-3 0  9994
2 62085  97.9720 350.8109 0000831 347.3842  12.7347 14.76930772 33169
Epoch: 2025-07-07T22:04Z
TLE epoch observation values (Epoch: 2025-07-07T22:04:19.921Z)
Latitude
-0.00005°
Longitude
93.6058°
Altitude
641.475 km
Speed
7.538 km/s
True Right ascension
23h 23m 14s
True Declination
0° 00' 00"
Sunlit
Object was in partial shadow at epoch
Visualization orbit readout
Latitude
19.16471°
Longitude
-83.25514°
Altitude
642.135 km
Speed
7.538 km/s
Apparent Right ascension
09h 41m 54s
Apparent Declination
-10° 31' 51"
Sunlit
Object is in daylight
Visualization observer readout
Local Sidereal Time
19:01:05
Azimuth
298.294° NW
Elevation
-43.883°
Doppler factor
1
Orbital elements
Apogee altitude
636.66 km
Perigee altitude
635.494 km
Semi-major axis
7,014.214 km
Eccentricity
0.00008
Inclination
97.972°
RAAN
350.8109°
Arg. of periapsis
347.3842°
True anomaly
Unknown
Mean anomaly
12.7347°
Eccentric anomaly
Unknown
Mean motion
3.69466 °/min
Orbital period
97.44 mins
BSTAR
0.00013814
Loading maneuver chart data...
Loading SW <> Apogee altitude chart data...
Loading historical data...
Loading historical data...
Loading historical data...
Loading historical data...
Loading historical data...
Loading historical data...
Loading historical data...

KINEIS-5B Visibility forecast

Observer location: undefined°, undefined°

Span
Click to sort rows by Start time (UTC) header in descending order
Start Az.
Max El. time (UTC)
Max El. Az.
Max El.
End time (UTC)
End Az.
4 mins2025-07-08 09:37:37.517Z91.207° ESE2025-07-08 09:39:37.517Z61.088° ENE14.828°2025-07-08 09:41:37.517Z32.626° NE
7 mins2025-07-08 11:12:37.517Z192.147° SSW2025-07-08 11:15:37.517Z267.825° W36.976°2025-07-08 11:19:37.517Z335.583° NNW
6 mins2025-07-08 23:03:37.517Z48.787° ENE2025-07-08 23:05:37.517Z89.833° E27.578°2025-07-08 23:09:37.517Z159.228° S
4 mins2025-07-09 00:40:37.517Z321.736° NNW2025-07-09 00:42:37.517Z283.277° WNW20.675°2025-07-09 00:44:37.517Z250.937° W
|